Time,TemperatureF,DewpointF,PressureIn,WindDirection,WindDirectionDegrees,WindSpeedMPH,WindSpeedGustMPH,Humidity,HourlyPrecipIn,Conditions,Clouds,dailyrainin,SoftwareType,DateUTC
2013-07-01 00:02:00,61.0,38.0,-100.00,NNE,21,15.0,17.0,43,0.00,,,-99.99,,2013-07-01 06:02:00,
2013-07-01 00:12:00,60.0,38.0,-100.00,NNE,24,17.0,19.0,44,0.00,,,-99.99,,2013-07-01 06:12:00,
2013-07-01 00:24:00,60.0,39.0,-100.00,NNE,25,16.0,19.0,45,0.00,,,-99.99,,2013-07-01 06:24:00,
2013-07-01 00:43:00,59.0,39.0,-100.00,NNE,27,17.0,19.0,47,0.00,,,-99.99,,2013-07-01 06:43:00,
2013-07-01 01:11:00,57.0,40.0,-100.00,NE,40,16.0,18.0,53,0.00,,,-99.99,,2013-07-01 07:11:00,
2013-07-01 01:43:00,59.0,40.0,-100.00,NE,40,14.0,17.0,49,0.00,,,-99.99,,2013-07-01 07:43:00,
2013-07-01 01:53:00,60.0,40.0,-100.00,NNE,25,17.0,19.0,48,0.00,,,-99.99,,2013-07-01 07:53:00,
2013-07-01 02:01:00,60.0,41.0,-100.00,NNE,18,14.0,18.0,48,0.00,,,-99.99,,2013-07-01 08:01:00,
2013-07-01 02:11:00,58.0,41.0,-100.00,NNE,14,14.0,16.0,52,0.00,,,-99.99,,2013-07-01 08:11:00,
2013-07-01 02:33:00,58.0,41.0,-100.00,NNE,28,12.0,14.0,54,0.00,,,-99.99,,2013-07-01 08:33:00,
2013-07-01 02:42:00,58.0,41.0,-100.00,NNE,30,15.0,17.0,54,0.00,,,-99.99,,2013-07-01 08:42:00,
2013-07-01 03:02:00,57.0,41.0,-100.00,NNE,30,9.0,12.0,55,0.00,,,-99.99,,2013-07-01 09:02:00,
2013-07-01 03:11:00,57.0,41.0,-100.00,SW,220,2.0,2.0,55,0.00,,,-99.99,,2013-07-01 09:11:00,
2013-07-01 03:34:00,58.0,41.0,-100.00,NNE,25,9.0,10.0,53,0.00,,,-99.99,,2013-07-01 09:34:00,
2013-07-01 03:43:00,56.0,41.0,-100.00,NNE,13,4.0,6.0,57,0.00,,,-99.99,,2013-07-01 09:43:00,
2013-07-01 04:03:00,57.0,41.0,-100.00,NE,51,7.0,9.0,55,0.00,,,-99.99,,2013-07-01 10:03:00,
2013-07-01 04:11:00,55.0,41.0,-100.00,NE,37,6.0,6.0,58,0.00,,,-99.99,,2013-07-01 10:11:00,
2013-07-01 04:33:00,56.0,41.0,-100.00,NNE,24,7.0,7.0,57,0.00,,,-99.99,,2013-07-01 10:33:00,
2013-07-01 04:42:00,55.0,41.0,-100.00,NNE,25,10.0,11.0,59,0.00,,,-99.99,,2013-07-01 10:42:00,
2013-07-01 05:02:00,55.0,41.0,-100.00,NNE,18,5.0,7.0,59,0.00,,,-99.99,,2013-07-01 11:02:00,
2013-07-01 05:43:00,56.0,41.0,-100.00,NNW,335,6.0,7.0,57,0.00,,,-99.99,,2013-07-01 11:43:00,
2013-07-01 06:01:00,54.0,41.0,-100.00,NW,312,4.0,6.0,62,0.00,,,-99.99,,2013-07-01 12:01:00,
2013-07-01 06:11:00,56.0,40.0,-100.00,West,280,6.0,6.0,54,0.00,,,-99.99,,2013-07-01 12:11:00,
2013-07-01 06:33:00,54.0,41.0,-100.00,WNW,289,6.0,7.0,61,0.00,,,-99.99,,2013-07-01 12:33:00,
2013-07-01 06:43:00,52.0,42.0,-100.00,NW,312,4.0,6.0,66,0.00,,,-99.99,,2013-07-01 12:43:00,
2013-07-01 07:01:00,55.0,42.0,-100.00,WNW,301,7.0,8.0,61,0.00,,,-99.99,,2013-07-01 13:01:00,
2013-07-01 07:43:00,63.0,42.0,-100.00,WNW,296,5.0,7.0,45,0.00,,,-99.99,,2013-07-01 13:43:00,
2013-07-01 08:01:00,64.0,42.0,-100.00,West,270,4.0,5.0,43,0.00,,,-99.99,,2013-07-01 14:01:00,
2013-07-01 08:43:00,67.0,40.0,-100.00,North,1,1.0,1.0,37,0.00,,,-99.99,,2013-07-01 14:43:00,
2013-07-01 09:02:00,67.0,39.0,-100.00,SSE,154,2.0,4.0,35,0.00,,,-99.99,,2013-07-01 15:02:00,
2013-07-01 09:43:00,68.0,44.0,-100.00,NNE,18,7.0,10.0,40,0.00,,,-99.99,,2013-07-01 15:43:00,
2013-07-01 10:44:00,68.0,43.0,-100.00,NNE,21,10.0,12.0,39,0.00,,,-99.99,,2013-07-01 16:44:00,
2013-07-01 11:12:00,71.0,42.0,-100.00,North,7,9.0,13.0,35,0.00,,,-99.99,,2013-07-01 17:12:00,
2013-07-01 11:43:00,70.0,44.0,-100.00,NNW,335,1.0,4.0,39,0.00,,,-99.99,,2013-07-01 17:43:00,
2013-07-01 12:02:00,69.0,44.0,-100.00,North,354,7.0,10.0,40,0.00,,,-99.99,,2013-07-01 18:02:00,
2013-07-01 12:22:00,71.0,45.0,-100.00,NE,45,10.0,16.0,39,0.00,,,-99.99,,2013-07-01 18:22:00,
2013-07-01 12:43:00,71.0,43.0,-100.00,NNE,32,12.0,15.0,36,0.00,,,-99.99,,2013-07-01 18:43:00,
2013-07-01 13:44:00,73.0,43.0,-100.00,North,357,15.0,17.0,34,0.00,,,-99.99,,2013-07-01 19:44:00,
2013-07-01 14:43:00,73.0,43.0,-100.00,NNE,24,14.0,20.0,34,0.00,,,-99.99,,2013-07-01 20:43:00,
2013-07-01 15:01:00,74.0,44.0,-100.00,NNE,31,14.0,21.0,34,0.00,,,-99.99,,2013-07-01 21:01:00,
2013-07-01 15:11:00,73.0,44.0,-100.00,NNE,28,14.0,21.0,34,0.00,,,-99.99,,2013-07-01 21:11:00,
2013-07-01 15:43:00,73.0,42.0,-100.00,NNE,17,17.0,24.0,33,0.00,,,-99.99,,2013-07-01 21:43:00,
2013-07-01 16:11:00,74.0,44.0,-100.00,NNE,18,18.0,21.0,34,0.00,,,-99.99,,2013-07-01 22:11:00,
2013-07-01 16:33:00,74.0,43.0,-100.00,NNE,25,19.0,22.0,33,0.00,,,-99.99,,2013-07-01 22:33:00,
2013-07-01 16:43:00,73.0,42.0,-100.00,NNE,24,21.0,26.0,34,0.00,,,-99.99,,2013-07-01 22:43:00,
2013-07-01 17:11:00,72.0,42.0,-100.00,North,11,22.0,26.0,34,0.00,,,-99.99,,2013-07-01 23:11:00,
2013-07-01 17:44:00,72.0,42.0,-100.00,NNE,21,19.0,24.0,34,0.00,,,-99.99,,2013-07-01 23:44:00,
2013-07-01 18:01:00,71.0,42.0,-100.00,NNE,13,21.0,27.0,34,0.00,,,-99.99,,2013-07-02 00:01:00,
2013-07-01 18:12:00,71.0,42.0,-100.00,North,0,17.0,22.0,34,0.00,,,-99.99,,2013-07-02 00:12:00,
2013-07-01 18:43:00,71.0,42.0,-100.00,NNE,14,17.0,22.0,35,0.00,,,-99.99,,2013-07-02 00:43:00,
2013-07-01 19:01:00,70.0,40.0,-100.00,NNE,17,24.0,29.0,34,0.00,,,-99.99,,2013-07-02 01:01:00,
2013-07-01 19:11:00,70.0,41.0,-100.00,North,7,23.0,31.0,35,0.00,,,-99.99,,2013-07-02 01:11:00,
2013-07-01 19:43:00,69.0,40.0,-100.00,North,0,20.0,29.0,35,0.00,,,-99.99,,2013-07-02 01:43:00,
2013-07-01 20:02:00,69.0,40.0,-100.00,North,6,21.0,24.0,35,0.00,,,-99.99,,2013-07-02 02:02:00,
2013-07-01 20:11:00,69.0,40.0,-100.00,North,359,22.0,26.0,35,0.00,,,-99.99,,2013-07-02 02:11:00,
2013-07-01 20:43:00,68.0,39.0,-100.00,North,359,20.0,24.0,35,0.00,,,-99.99,,2013-07-02 02:43:00,
2013-07-01 21:01:00,68.0,39.0,-100.00,North,3,16.0,19.0,35,0.00,,,-99.99,,2013-07-02 03:01:00,
2013-07-01 21:43:00,67.0,39.0,-100.00,NNW,344,16.0,19.0,35,0.00,,,-99.99,,2013-07-02 03:43:00,
2013-07-01 22:11:00,67.0,39.0,-100.00,North,360,19.0,21.0,35,0.00,,,-99.99,,2013-07-02 04:11:00,
2013-07-01 22:32:00,66.0,39.0,-100.00,North,356,16.0,21.0,36,0.00,,,-99.99,,2013-07-02 04:32:00,
2013-07-01 22:42:00,66.0,39.0,-100.00,NNW,347,18.0,23.0,37,0.00,,,-99.99,,2013-07-02 04:42:00,
2013-07-01 23:01:00,66.0,38.0,-100.00,North,360,21.0,26.0,36,0.00,,,-99.99,,2013-07-02 05:01:00,
2013-07-01 23:11:00,66.0,38.0,-100.00,North,7,18.0,22.0,37,0.00,,,-99.99,,2013-07-02 05:11:00,
2013-07-01 23:22:00,65.0,38.0,-100.00,North,3,21.0,24.0,37,0.00,,,-99.99,,2013-07-02 05:22:00,
2013-07-01 23:32:00,65.0,38.0,-100.00,North,353,18.0,23.0,38,0.00,,,-99.99,,2013-07-02 05:32:00,
2013-07-01 23:43:00,64.0,38.0,-100.00,NNE,16,14.0,17.0,39,0.00,,,-99.99,,2013-07-02 05:43:00,